Location: Newark
(46.7000°N, 60.6000°W)
Time: 17:08:51
(UTC+00:00)

Transit 4A - All Passes

Search period start: 21 October 2020 00:00
Search period end: 31 October 2020 00:00
Orbit: 862 x 982 km, 66.8° (Epoch: 20 October)

Date Brightness Start Highest point End Pass type
(mag) Time Alt. Az. Time Alt. Az. Time Alt. Az.
21 Oct - 00:40:32 10° NW 00:43:23 13° N 00:46:14 10° NNE visible
21 Oct - 02:29:24 10° NNW 02:32:47 14° NNE 02:36:11 10° NE visible
21 Oct - 04:15:23 10° NNW 04:21:15 35° NE 04:27:02 10° ESE visible
21 Oct - 06:01:42 10° NW 06:08:00 59° WSW 06:14:10 10° SSE night (unlit)
21 Oct - 19:26:34 10° SSE 19:31:10 22° ESE 19:35:52 10° ENE daylight
21 Oct - 21:10:38 10° SW 21:16:53 76° NW 21:23:19 10° NNE daylight
21 Oct - 22:59:29 10° W 23:04:21 23° NNW 23:09:18 10° NNE visible
22 Oct - 00:50:55 10° NNW 00:53:23 12° N 00:55:50 10° NNE visible
22 Oct - 02:38:42 10° NNW 02:42:42 17° NNE 02:46:41 10° ENE visible
22 Oct - 04:24:38 10° NNW 04:30:49 46° NE 04:36:54 10° ESE night (unlit)
22 Oct - 06:11:14 10° NW 06:17:11 41° WSW 06:23:01 10° S night (unlit)
22 Oct - 19:34:49 10° S 19:40:13 32° ESE 19:45:44 10° NE daylight
22 Oct - 21:20:09 10° SW 21:26:18 56° NW 21:32:37 10° NNE visible
22 Oct - 23:09:49 10° WNW 23:14:09 19° NNW 23:18:33 10° NNE visible
23 Oct - 01:01:02 10° NNW 01:03:24 12° N 01:05:44 10° NNE visible
23 Oct - 02:47:58 10° NNW 02:52:34 20° NNE 02:57:07 10° ENE visible
23 Oct - 04:33:55 10° NNW 04:40:19 62° NE 04:46:34 10° SE night (unlit)
23 Oct - 06:20:55 10° NW 06:26:17 29° WSW 06:31:35 10° SSW night (unlit)
23 Oct - 19:43:28 10° S 19:49:21 46° ESE 19:55:22 10° NE daylight
23 Oct - 21:29:53 10° WSW 21:35:48 42° NW 21:41:53 10° NNE visible
23 Oct - 23:20:16 10° WNW 23:24:01 16° NNW 23:27:49 10° NNE visible
24 Oct - 01:10:49 10° NNW 01:13:24 12° N 01:15:57 10° NNE visible
24 Oct - 02:57:12 10° NNW 03:02:20 24° NNE 03:07:25 10° E visible
24 Oct - 04:43:14 10° NNW 04:49:43 83° ENE 04:56:02 10° SE night (unlit)
24 Oct - 06:30:52 10° WNW 06:35:19 20° WSW 06:39:43 10° SSW night (unlit)
24 Oct - 18:11:47 10° ESE 18:13:26 11° E 18:15:06 10° E daylight
24 Oct - 19:52:24 10° SSW 19:58:32 65° ESE 20:04:53 10° NE daylight
24 Oct - 21:39:47 10° WSW 21:45:24 33° NW 21:51:08 10° NNE visible
24 Oct - 23:30:46 10° NW 23:33:57 14° NNW 23:37:09 10° NNE visible
25 Oct - 01:20:21 10° NNW 01:23:22 13° NNE 01:26:24 10° NE visible
25 Oct - 03:06:26 10° NNW 03:12:03 30° NE 03:17:34 10° E visible
25 Oct - 04:52:36 10° NW 04:59:01 73° WSW 05:05:18 10° SSE night (unlit)
25 Oct - 06:41:26 10° WNW 06:44:16 13° W 06:47:05 10° SW night (unlit)
25 Oct - 18:18:29 10° SE 18:22:22 17° ESE 18:26:18 10° ENE daylight
25 Oct - 20:01:35 10° SSW 20:07:50 89° ESE 20:14:17 10° NE daylight
25 Oct - 21:49:53 10° W 21:55:05 26° NW 22:00:22 10° NNE visible
25 Oct - 23:41:14 10° NW 23:43:55 13° N 23:46:37 10° NNE visible
26 Oct - 01:29:43 10° NNW 01:33:19 15° NNE 01:36:55 10° NE visible
26 Oct - 03:15:40 10° NNW 03:21:40 39° NE 03:27:33 10° ESE visible
26 Oct - 05:02:04 10° NW 05:08:16 52° WSW 05:14:19 10° S night (unlit)
26 Oct - 18:26:24 10° SSE 18:31:21 25° ESE 18:36:25 10° NE daylight
26 Oct - 20:10:59 10° SW 20:17:12 68° NW 20:23:37 10° NNE daylight
26 Oct - 22:00:07 10° WNW 22:04:50 21° NNW 22:09:36 10° NNE visible
26 Oct - 23:51:33 10° NNW 23:53:56 12° N 23:56:19 10° NNE visible
27 Oct - 01:39:00 10° NNW 01:43:13 18° NNE 01:47:24 10° ENE visible
27 Oct - 03:24:56 10° NNW 03:31:12 51° NE 03:37:20 10° SE visible
27 Oct - 05:11:39 10° NW 05:17:25 36° WSW 05:23:04 10° S night (unlit)
27 Oct - 18:34:50 10° S 18:40:26 36° ESE 18:46:11 10° NE daylight
27 Oct - 20:20:34 10° SW 20:26:40 51° NW 20:32:55 10° NNE daylight
27 Oct - 22:10:30 10° WNW 22:14:39 18° NNW 22:18:50 10° NNE visible
28 Oct - 00:01:33 10° NNW 00:03:57 12° N 00:06:20 10° NNE visible
28 Oct - 01:48:15 10° NNW 01:53:02 21° NNE 01:57:47 10° ENE visible
28 Oct - 03:34:13 10° NNW 03:40:39 69° NE 03:46:56 10° SE visible
28 Oct - 05:21:25 10° NW 05:26:30 25° WSW 05:31:30 10° SSW night (unlit)
28 Oct - 18:43:35 10° S 18:49:36 52° ESE 18:55:46 10° NE daylight
28 Oct - 20:30:22 10° WSW 20:36:12 38° NW 20:42:10 10° NNE daylight
28 Oct - 22:20:58 10° NW 22:24:33 15° NNW 22:28:08 10° NNE visible
29 Oct - 00:11:14 10° NNW 00:13:57 13° N 00:16:39 10° NE visible
29 Oct - 01:57:29 10° NNW 02:02:47 26° NE 02:08:02 10° E visible
29 Oct - 03:43:33 10° NW 03:50:01 88° WSW 03:56:20 10° SSE visible
29 Oct - 05:31:32 10° WNW 05:35:30 17° WSW 05:39:26 10° SW night (unlit)
29 Oct - 17:10:49 10° SE 17:13:35 13° E 17:16:23 10° ENE daylight
29 Oct - 18:52:36 10° SSW 18:58:50 73° ESE 19:05:14 10° NE daylight
29 Oct - 20:40:20 10° W 20:45:49 30° NW 20:51:25 10° NNE daylight
29 Oct - 22:31:29 10° NW 22:34:30 13° NNW 22:37:30 10° NNE visible
30 Oct - 00:20:41 10° NNW 00:23:54 14° NNE 00:27:08 10° NE visible
30 Oct - 02:06:43 10° NNW 02:12:28 33° NE 02:18:07 10° ESE visible
30 Oct - 03:52:58 10° NW 03:59:19 65° WSW 04:05:31 10° SSE night (unlit)
30 Oct - 05:42:41 10° W 05:44:26 11° W 05:46:09 10° WSW night (unlit)
30 Oct - 17:18:11 10° SSE 17:22:32 20° ESE 17:26:58 10° ENE daylight
30 Oct - 19:01:52 10° SW 19:08:08 83° WNW 19:14:37 10° NNE daylight
30 Oct - 20:50:29 10° W 20:55:32 24° NNW 21:00:39 10° NNE daylight
30 Oct - 22:41:55 10° NNW 22:44:29 12° N 22:47:02 10° NNE visible
